Back to catalog

STARLINK-36390

AliveCommunicationsSSO
NORAD 67886·PAYLOAD·🇺🇸 United States

Launched Feb 21, 2026 from Vandenberg Space Force Base

Loading…

Next Passes (next 24 hours)

TLE

FreshSource: CelesTrak SupGP

Epoch: Sep 14, 2026, 16:03 UTC

1 67886C 26035H   26257.66923611  .00011285  00000+0  35030-3 0  2574
2 67886  97.2846 189.5422 0001902  95.4460 333.3921 15.33433912    13

Track STARLINK-36390 in real time with AllMySat

Download on the App Store